Regional Weather Roundup
Issued by NWS

Home | Current Version | Previous Version | Graphics & Text | Print | Product List | Glossary Off
Versions: 1 2 3 4 5 6 7 8 9 10 11 12 13 14 15 16 17 18 19 20 21 22 23 24 25 26 27 28 29 30 31 32 33 34 35 36 37 38 39 40 41 42 43 44 45 46 47 48 49 50

000
ASUS43 KFSD 182102
RWRSD

WEATHER ROUNDUP FOR SOUTH DAKOTA
NATIONAL WEATHER SERVICE SIOUX FALLS SD
300 PM CST THU JAN 18 2018

NOTE: "FAIR" INDICATES FEW OR NO CLOUDS BELOW 12,000 FEET WITH NO
SIGNIFICANT WEATHER AND/OR OBSTRUCTIONS TO VISIBILITY.


SDZ001>005-009-010-012>017-182200-
NORTHWEST AND NORTH CENTRAL SOUTH DAKOTA

CITY           SKY/WX    TMP DP  RH WIND       PRES   REMARKS
BUFFALO          N/A     45  27  49 SW7       29.67F
FAITH            N/A     43  29  57 S7        29.76F
MOBRIDGE       FAIR      40  28  62 S5        29.73F
$$

SDZ012>016-024>037-041>051-057-063-072>074-182200-
SOUTHWEST AND SOUTH CENTRAL SOUTH DAKOTA

CITY           SKY/WX    TMP DP  RH WIND       PRES   REMARKS
RAPID CTY ARPT FAIR      66  26  22 E5        29.79F
PIERRE         NOT AVBL
CUSTER         FAIR      51  13  21 W9        29.86F
ELLSWORTH AFB  FAIR      56  22  27 S3        29.78F
PHILIP         FAIR      52  29  41 SW7       29.78F
PINE RIDGE     FAIR      51  28  41 SW7       29.85F
SPEARFISH        N/A     55  27  33 NW5       29.79F
WINNER         FAIR      45  31  58 SW8       29.83F
$$

SDZ004>011-016>023-039-040-182200-
NORTHEAST SOUTH DAKOTA

CITY           SKY/WX    TMP DP  RH WIND       PRES   REMARKS
ABERDEEN       FAIR      40  29  64 S8        29.77F
WATERTOWN      FAIR      38  28  67 SW8       29.77F
BROOKINGS      FAIR      38  28  67 SW6       29.80S
SISSETON         N/A     42  26  53 W8        29.75F
$$

SDZ017-020-022-023-036>040-048>070-182200-
SOUTHEAST SOUTH DAKOTA

CITY           SKY/WX    TMP DP  RH WIND       PRES   REMARKS
SIOUX FALLS    CLOUDY    39  29  67 SW7       29.82S
HURON          FAIR      38  29  70 S5        29.81S
CHAMBERLAIN    FAIR      42  31  66 CALM      29.81S
MITCHELL       FAIR      40  31  70 SW3       29.82F
YANKTON        FAIR      43  26  51 W7        29.85S
$$

ABBREVIATIONS USED IN REMARKS
   TC - TEMPERATURE IN CELSIUS
  WCI - WIND CHILL INDEX
   HX - HEAT INDEX
  VSB - VISIBILITY




USA.gov is the U.S. government's official web portal to all federal, state and local government web resources and services.